Showing default

SJ-5, 25731

Orbit data source: Space-Track

SJ-5, 25731 is a payload satellite owned by CASC (CN) in SSO that was launched on Mon, 10 May 1999 UTC via a CHANG ZHENG 4B launch vehicle from the Taiyaun Space Center, China (TSC). Payload-class satellites include a variety of spacecraft equipped with specific instruments for various scientific and technological missions. These include communications satellites like Starlink; space stations such as the ISS; scientific satellites like the Hubble; Earth observation satellites from companies like Planet Labs, Umbra, and HawkEye 360; GPS; miniature CubeSats for education and research; and military/defense satellites.

Loading next visibility...
Identifier
25731, 1999-025B
Orbit
SSO
Country
Flag of CNCN / PRC
Related business
Manufacturer
DFH
Mission
Civil Science
Bus & Motor
CAST-968, Unknown motor
Mass
258 kg wet, 258 kg dry
Launch date (UTC)
1999-05-10 (27 years ago)
Launch vehicle
CHANG ZHENG 4B
Launch site
Taiyaun Space Center, China (TSC)
Object type
Payload
Rocket body
Debris
Shape & HBR
Box + 1 Pan, 2.0 m
Radar Cross Section
2.313 m², Large (>1 m²)

Expand to show TLE details & history
Last TLE update: 6 hours ago

TLE from 6 hours ago
0 SJ-5
1 25731U 99025B   26123.14650137  .00000041  00000-0  45215-4 0  9990
2 25731  98.7294 166.6827 0017968 121.9068 238.3855 14.12924135388963
Epoch: 2026-05-03T03:30Z
TLE epoch observation values (Epoch: 2026-05-03T03:30:57.718Z)
Latitude
-0.00004°
Longitude
-107.11202°
Altitude
859.113 km
Speed
7.419 km/s
True Right ascension
11h 06m 43s
True Declination
0° 00' 00"
Sunlit
Object was in full shadow at epoch
Visualization orbit readout
Latitude
Unknown
Longitude
Unknown
Altitude
Unknown
Speed
Unknown
Apparent Right ascension
Unknown
Apparent Declination
Unknown
Sunlit
N/A
Visualization observer readout
Local Sidereal Time
17:26:14
Azimuth
Unknown
Elevation
Unknown
Doppler factor
Unknown
Orbital elements
Apogee altitude
859.533 km
Perigee altitude
833.57 km
Semi-major axis
7,224.689 km
Eccentricity
0.0018
Inclination
98.7294°
RAAN
166.6827°
Arg. of periapsis
121.9068°
True anomaly
238.21036°
Mean anomaly
238.3855°
Eccentric anomaly
238.29791°
Mean motion
3.53439 °/min
Orbital period
101.86 mins
BSTAR
0.000045215
Loading maneuver chart data...
Computing Atmospheric mass density...

Documentation

Showing up to 5 results
|